Regional Weather Roundup
Issued by NWS

Home | Current Version | Previous Version | Graphics & Text | Print | Product List | Glossary Off
Versions: 1 2 3 4 5 6 7 8 9 10 11 12 13 14 15 16 17 18 19 20 21 22 23 24 25 26 27 28 29 30 31 32 33 34 35 36 37 38 39 40 41 42 43 44 45 46 47 48 49 50

000
ASUS43 KLMK 291210
RWRKY
KENTUCKY REGIONAL WEATHER ROUNDUP
NATIONAL WEATHER SERVICE LOUISVILLE KY
700 AM EST THU JAN 29 2015

NOTE "FAIR" INDICATES FEW OR NO CLOUDS BELOW 12,000 FEET
WITH NO SIGNIFICANT WEATHER AND/OR OBSTRUCTIONS TO VISIBILITY.

KYZ001>023-026-027-061>063-070>075-291300-
WESTERN AND SOUTH CENTRAL KENTUCKY

CITY           SKY/WX    TMP DP  RH WIND       PRES   REMARKS
PADUCAH        PTCLDY    52  38  58 SW12G22   29.89S
HENDERSON      CLOUDY    52  36  54 SW20G28   29.85S
OWENSBORO      CLOUDY    47  36  65 S13       29.88F
HOPKINSVILLE   CLOUDY    52  34  51 S15G23    29.95S
BOWLING GREEN  CLOUDY    47  32  56 S21G29    29.97F
GLASGOW        LGT RAIN  44  34  66 S13G21    29.98F
$$

KYZ024-025-028>034-038-045-046-053-291300-
NORTH CENTRAL KENTUCKY

CITY           SKY/WX    TMP DP  RH WIND       PRES   REMARKS
LOUISVILLE/SDF LGT RAIN  44  32  62 S13       29.90F
LOUISVILLE/LOU CLOUDY    44  30  57 S13       29.90F
FORT KNOX      CLOUDY    41  32  70 S15G24    29.90F
$$

KYZ035>037-039>044-047>052-055>060-089>105-291300-
NORTHEAST KENTUCKY

CITY           SKY/WX    TMP DP  RH WIND       PRES   REMARKS
LEXINGTON      LGT RAIN  37  25  61 S18       29.98F WCI  27
COVINGTON      CLOUDY    38  29  70 S17       29.88F WCI  28
FRANKFORT      LGT RAIN  40  29  64 S16G22    29.93F WCI  31
$$

KYZ054-064>069-076>088-106>120-291300-
SOUTHEAST KENTUCKY

CITY           SKY/WX    TMP DP  RH WIND       PRES   REMARKS
JACKSON        MOCLDY    35  19  52 SW5       30.04F WCI  31
LONDON         CLOUDY    40  17  39 S6        30.06F
SOMERSET       CLOUDY    41  21  45 S6        30.08S
MIDDLESBORO    MOCLDY    36  20  53 SE9G17    30.15F WCI  29
MONTICELLO     CLOUDY    46  23  40 S10       30.09S
$$



USA.gov is the U.S. government's official web portal to all federal, state and local government web resources and services.